EHI
0 0 0 0 0 0 0 0 0 0 0 0 0 0 0 0 0 0 0 0 0 0 0 0 0 0 0 0 0 0 0 0 0 0 0 0 0 0 0 0 0 0 0
0 0 0 0 0 0 0 0 0 0 0 0 0 0 0 0 0 0 0 0 0 0 0 0 0 1 1 0 0 0 0 0 0 0 0 0 0 0 0 0 0 0 0
0 0 0 0 0 0 0 0 0 0 0 0 0 0 0 0 0 0 0 0 0 0 0 0 1 2 2 1 0 0 0 0 0 0 0 0 0 0 0 0 0 0 0
0 0 0 0 0 0 0 0 0 0 0 0 0 0 0 0 0 0 0 0 0 0 0 0 1 3 4 3 1 0 0 0 0 0 0 0 0 0 0 0 0 0 0
0 0 0 0 0 0 0 0 0 0 0 0 0 0 0 0 0 0 0 0 0 0 0 0 0 2 4 4 3 1 0 0 0 0 0 0 0 0 0 0 0 0 0
0 0 0 0 0 0 0 0 0 0 0 0 0 0 0 0 0 0 0 0 0 0 0 0 0 0 2 3 3 2 1 1 1 0 0 0 0 0 0 0 0 0 0
0 0 0 0 0 0 0 0 0 0 0 0 0 0 0 0 0 0 0 0 0 0 0 0 0 0 0 1 1 2 2 2 2 1 0 0 0 0 0 0 0 0 0
0 0 0 0 0 0 0 0 0 0 0 0 0 0 0 0 0 0 0 0 0 0 0 0 0 0 0 0 0 1 1 2 2 1 0 0 0 0 0 0 0 0 0
0 0 0 0 0 0 0 0 0 0 0 0 0 0 0 0 0 0 0 0 0 0 0 0 0 0 0 0 0 0 0 1 1 0 0 0 0 0 0 0 0 0 0
0 0 0 0 0 0 0 0 0 0 0 0 0 0 0 0 0 0 0 0 0 0 0 0 0 0 0 0 0 0 0 0 0 0 0 0 0 0 0 0 0 0 0
0 0 0 0 0 0 0 0 0 0 0 0 0 0 0 0 0 0 0 0 0 0 0 0 0 0 0 0 0 0 0 0 0 0 0 0 0 0 0 0 0 0 0
0 0 0 0 0 0 0 0 0 0 0 0 0 0 0 0 0 0 0 0 0 0 0 0 0 0 0 0 0 0 0 0 0 0 0 0 0 0 0 0 0 0 0
0 0 0 0 0 0 0 0 0 0 0 0 0 0 0 0 0 0 0 0 0 0 0 0 0 0 0 0 0 0 0 0 0 0 0 0 0 0 0 0 0 0 0
0 0 0 0 0 0 0 0 0 0 0 0 0 0 0 0 0 0 0 0 0 0 0 0 0 0 0 0 0 0 0 0 0 0 0 0 0 0 0 0 0 0 0
0 0 0 0 0 0 0 0 0 0 0 0 0 0 0 0 0 0 0 0 0 0 0 0 0 0 0 0 0 0 0 0 0 0 0 0 0 0 0 0 0 0 0
0 0 0 0 0 0 0 0 0 0 0 0 0 0 0 0 0 0 0 0 0 0 0 0 0 0 0 0 0 0 0 0 0 0 0 0 0 0 0 0 0 0 0
0 0 0 0 0 0 0 0 0 0 0 0 0 0 0 0 0 0 0 0 0 0 0 0 0 0 0 0 0 0 0 0 0 0 0 0 0 0 0 0 0 0 0
0 0 0 0 0 0 0 0 0 0 0 0 0 0 0 0 0 0 0 0 0 0 0 0 0 0 0 0 0 0 0 0 0 0 0 0 0 0 0 0 0 0 0
0 0 0 0 0 0 0 0 0 0 0 0 0 0 0 0 0 0 0 0 0 0 0 0 0 0 0 0 0 0 0 0 0 0 0 0 0 0 0 0 0 0 0
0 0 0 0 0 0 0 0 0 0 0 0 0 0 0 0 0 0 0 0 0 0 0 0 0 0 0 0 0 0 0 0 0 0 0 0 0 0 0 0 0 0 0
0 0 0 0 0 0 0 0 0 0 0 0 0 0 0 0 0 0 0 0 0 0 0 0 0 0 0 0 0 0 0 0 0 0 0 0 0 0 0 0 0 0 0
0 0 0 0 0 0 0 0 0 0 0 0 0 0 0 0 0 0 0 0 0 0 0 0 0 0 0 0 0 0 0 0 0 0 0 0 0 0 0 0 0 0 0
0 0 0 0 0 0 0 0 0 0 0 0 0 0 0 0 0 0 0 0 0 0 0 0 0 0 0 0 0 0 0 0 0 0 0 0 0 0 0 0 0 0 0
0 0 0 0 0 0 0 0 0 0 0 0 0 0 0 0 0 0 0 0 0 0 0 0 0 0 0 0 0 0 0 0 0 0 0 0 0 0 0 0 0 0 0
0 0 0 0 0 0 0 0 0 0 0 0 0 0 0 0 0 0 0 0 0 0 0 0 0 0 0 0 0 0 0 0 0 0 0 0 0 0 0 0 0 0 0
0 0 0 0 0 0 0 0 0 0 0 0 0 0 0 0 0 0 0 0 0 0 0 0 0 0 0 0 0 0 0 0 0 0 0 0 0 0 0 0 0 0 0
Wind_Speed
1 1 1 1 1 1 1 2 2 2 3 3 3 3 3 3 3 3 3 5 7 9 11 11 10 10 10 10 10 9 9 9 9 9 8 8 8 8 8 8 8 8 8
1 1 1 1 2 2 2 1 2 2 3 3 3 3 4 3 3 3 2 3 5 6 8 9 9 9 9 9 10 9 9 9 8 9 9 9 8 8 8 8 8 8 7
2 1 1 1 2 2 2 2 2 2 2 3 3 4 3 3 3 3 2 2 2 3 5 6 7 7 7 9 9 9 9 9 8 8 8 9 9 9 8 8 8 8 8
3 2 2 2 2 2 2 2 1 2 2 3 3 3 3 2 2 2 1 1 1 2 2 4 5 5 6 7 9 9 8 8 8 8 8 8 9 9 10 9 9 8 8
3 2 2 2 3 2 2 2 2 2 2 3 3 3 2 2 2 2 1 1 1 1 2 3 4 5 5 6 7 8 8 8 7 7 8 9 9 10 10 10 10 10 10
3 3 2 3 3 2 2 2 2 2 2 3 4 3 2 2 2 2 2 1 1 1 2 2 2 3 5 6 7 8 9 8 8 9 9 9 9 10 10 10 10 11 11
3 3 3 3 3 2 3 3 2 2 2 2 2 3 3 2 2 1 1 1 1 2 2 2 2 2 3 5 7 8 9 9 9 9 9 10 10 11 12 11 11 11 11
3 3 2 2 3 2 3 3 3 2 2 2 1 2 3 3 2 1 1 1 2 2 2 2 2 2 2 2 4 6 7 9 10 10 10 10 11 11 12 13 13 12 12
2 2 2 2 2 2 2 3 2 2 2 2 1 1 1 3 3 2 1 1 2 2 2 2 3 3 3 2 3 5 6 8 10 10 10 10 10 12 12 13 13 14 13
2 2 2 2 2 2 2 2 2 2 2 2 2 1 2 2 3 4 2 2 2 3 3 3 3 3 3 2 3 5 6 8 10 12 12 12 11 12 12 12 12 12 13
2 2 2 2 2 1 2 2 2 2 2 2 2 2 2 2 3 3 5 3 3 3 3 3 3 2 2 2 2 4 7 9 10 11 12 12 12 12 12 12 12 12 11
2 2 2 2 2 2 2 2 2 2 2 2 2 2 2 2 2 3 5 5 5 3 3 3 2 2 2 2 4 6 7 8 10 11 12 11 11 10 10 10 11 11 11
2 3 2 2 2 2 2 2 2 2 2 2 2 2 2 3 2 3 4 5 5 4 3 2 2 2 2 2 3 7 8 9 10 11 12 12 11 10 10 10 10 10 11
2 2 2 2 2 2 3 2 2 2 2 2 3 2 2 2 2 2 3 4 5 5 3 4 2 2 2 3 5 7 6 10 11 12 12 12 10 9 9 9 10 10 11
2 2 2 2 2 2 2 2 2 2 2 2 2 2 2 2 2 2 2 3 4 6 6 4 3 2 3 3 6 4 5 10 12 12 11 10 10 9 8 9 9 10 11
2 2 2 2 2 2 2 2 2 2 2 2 2 2 3 3 3 2 2 3 3 5 7 4 4 4 4 5 7 5 6 11 11 11 11 10 10 9 9 9 10 10 11
2 2 2 2 2 2 2 2 2 2 2 3 3 3 3 3 3 3 3 3 3 4 7 6 4 4 4 5 5 5 5 5 6 11 11 10 10 10 10 10 10 10 11
2 2 2 2 2 3 2 2 3 3 2 3 3 3 4 4 4 3 3 4 4 4 5 8 5 4 5 5 5 6 6 6 5 9 10 10 10 10 10 10 10 10 11
2 2 2 2 2 3 3 3 3 3 3 3 3 4 4 4 4 4 4 4 4 4 4 6 6 4 4 4 5 5 5 5 6 7 9 9 10 10 10 10 11 11 11
3 2 2 2 3 3 3 3 3 3 3 4 4 4 4 4 5 5 4 4 4 4 4 5 6 5 5 4 3 4 6 4 5 5 6 7 9 10 10 11 11 10 10
3 3 2 3 3 3 3 3 3 3 4 4 4 4 5 6 7 6 5 4 4 4 4 5 5 5 5 4 4 4 6 6 5 3 3 4 5 4 5 8 9 10 11
3 3 3 3 3 3 5 6 5 3 4 4 5 5 5 6 7 9 9 8 6 5 5 5 5 6 6 5 5 5 5 5 5 2 3 6 4 4 4 4 8 11 11
3 3 4 3 4 5 7 8 8 4 4 4 5 5 5 5 6 5 7 9 8 10 9 6 6 7 7 6 6 6 5 6 6 4 4 6 3 5 5 6 10 11 11
3 4 4 4 4 5 8 8 8 4 4 4 4 4 5 5 5 5 5 5 6 6 7 6 6 7 7 6 6 6 6 6 5 4 3 5 4 4 6 6 9 10 10
4 4 3 4 4 5 8 8 7 3 3 4 4 4 5 5 9 10 6 5 6 6 8 9 10 9 10 10 8 4 4 4 5 4 2 3 3 5 5 5 5 8 9
4 4 4 4 4 5 7 8 7 2 3 4 4 4 7 7 9 10 6 5 7 7 6 6 6 7 6 7 8 5 4 4 4 4 2 2 3 4 4 3 3 4 5
Wind_Direction
343 336 326 326 316 311 305 307 305 303 297 290 285 284 283 278 271 266 273 265 259 258 259 258 250 243 240 237 235 234 233 235 233 234 234 231 231 234 237 240 245 249 251
349 338 333 324 312 302 295 289 297 297 290 288 289 286 277 276 274 274 272 279 277 275 271 266 261 256 250 245 242 239 236 236 240 238 235 231 229 234 239 243 246 247 249
10 1 346 335 320 319 322 319 316 311 309 307 298 292 287 281 281 277 277 280 296 302 293 285 280 271 266 261 255 250 246 239 234 237 240 235 234 236 239 243 246 248 250
9 10 3 340 332 339 341 333 332 330 321 314 307 304 304 297 292 288 288 302 305 306 310 308 299 288 279 273 269 263 256 251 243 237 239 240 238 238 241 242 244 248 250
9 11 1 344 343 351 348 341 346 333 319 317 307 305 310 308 301 300 309 325 326 324 311 315 303 300 293 286 280 275 270 264 256 249 245 245 244 241 242 244 244 247 249
11 12 3 356 356 0 353 348 336 337 319 313 312 315 310 303 303 296 282 294 319 329 330 329 311 304 297 289 286 281 278 274 267 258 254 252 249 243 242 246 249 249 252
12 15 6 359 358 360 345 339 333 335 334 334 336 323 313 294 280 291 303 316 330 322 325 322 309 308 305 297 293 292 286 278 275 270 269 262 256 253 246 246 248 251 255
11 12 16 2 351 355 351 343 341 333 332 353 348 322 317 320 315 315 309 304 314 319 322 312 298 291 287 286 301 297 293 287 281 275 274 271 264 262 260 252 249 250 254
9 3 8 6 349 354 341 332 326 324 315 321 332 258 287 284 312 290 287 304 318 318 310 309 301 301 296 285 290 301 301 298 289 282 279 279 278 271 269 266 258 256 254
360 355 2 5 349 348 336 323 330 313 294 299 309 279 257 271 283 299 292 294 307 303 302 305 297 297 296 289 294 312 314 304 295 288 285 283 283 282 277 277 270 263 262
352 350 351 351 343 335 326 321 323 319 302 282 281 285 288 290 266 271 289 296 297 283 288 286 284 289 292 291 290 309 312 303 297 293 290 288 286 284 285 283 282 272 268
333 337 338 339 332 328 328 323 317 314 307 300 295 285 275 274 277 273 280 292 294 291 290 280 277 280 284 287 305 317 308 302 298 295 291 290 291 292 289 288 288 286 274
309 313 323 327 326 318 318 320 320 317 311 301 295 292 288 281 278 275 278 289 293 293 287 281 275 282 293 295 295 315 305 301 297 293 289 288 290 292 292 290 291 298 287
277 288 301 312 316 318 320 320 317 312 312 305 305 300 299 295 292 283 278 286 293 293 284 277 284 277 297 298 300 314 304 304 298 293 289 288 291 295 294 291 291 293 293
286 295 302 308 314 315 310 311 310 306 308 305 303 304 298 295 291 286 283 273 272 286 287 285 287 292 300 296 303 301 298 302 300 295 292 289 289 289 290 289 291 292 294
277 294 300 301 305 309 310 310 307 304 311 307 300 304 304 300 299 289 282 280 267 267 277 284 284 290 299 301 306 303 295 305 298 295 292 290 288 286 284 286 287 286 291
263 271 281 290 294 301 301 304 300 308 312 312 312 309 304 302 298 298 293 282 271 265 273 285 284 289 282 288 299 298 295 293 292 294 291 290 288 284 284 285 285 284 286
252 259 272 285 289 294 295 293 295 305 300 302 303 303 299 299 299 294 291 285 275 267 271 283 289 287 278 283 289 296 304 305 296 295 293 293 291 286 284 283 281 279 280
244 254 260 271 280 286 291 289 286 292 288 285 286 287 289 291 291 293 292 287 280 279 274 279 286 285 283 288 295 296 295 294 298 296 290 286 288 288 287 285 281 280 280
232 242 252 261 269 277 280 280 286 289 288 285 283 282 283 282 282 286 286 285 287 285 284 281 284 288 286 288 290 295 301 302 297 295 293 296 293 290 286 286 283 281 279
235 237 247 261 268 270 270 277 284 285 284 286 287 284 283 284 281 282 286 286 288 288 287 287 288 291 290 295 291 290 297 302 295 277 288 291 290 281 278 283 284 282 282
235 235 242 252 262 271 280 281 285 273 275 278 285 287 287 288 291 294 292 288 284 284 285 281 284 286 288 287 287 287 294 302 298 276 296 296 285 282 282 272 282 287 284
226 234 242 244 254 266 277 281 283 285 272 273 278 284 291 293 297 296 296 297 294 292 286 279 279 278 280 279 286 288 284 285 281 282 293 288 281 282 282 283 285 282 280
227 235 242 243 253 268 279 283 288 285 274 273 277 281 284 291 293 296 296 299 291 289 289 283 270 273 273 273 269 275 276 283 285 279 272 280 285 282 292 286 277 276 281
234 236 241 242 249 267 277 283 288 281 279 282 285 286 287 288 295 301 298 294 299 298 297 291 288 290 294 294 290 289 285 287 292 288 268 268 285 297 287 274 267 276 287
232 239 246 241 242 256 272 280 284 266 273 282 287 285 284 291 297 301 297 294 297 298 301 304 298 296 295 294 293 275 264 267 287 287 257 278 284 311 302 277 273 275 277